Location: Bonny Doon Airfield
(37.0704°N, 122.1252°W)
Time: 13:50:10
(UTC-07:00)

Tiangong 2 - Pass Details

Date: 11 October 2017
Orbit: 388 x 391 km, 42.8° (Epoch: 23 October)

Event Time Altitude Azimuth Distance (km) Brightness Sun altitude
Exits shadow 04:43:25 12° 71° (ENE) 1,323 4.6 -30.4°
Drops below altitude 10° 04:43:34 11° 71° (ENE) 1,380 4.7 -30.4°
Sets 04:45:45 0° 68° (ENE) 2,277 6.2 -30.0°
